Winona, MN

1:32 AM CDT on May 27, 2018 (GMT -0500)
Winona Municipal-Conrad

Weather History for KONA - January, 2014

Change the Weather History Date:

Tuesday, January 21, 2014

  Actual Average Record
Temperature  
Mean Temperature -3 °F -  
Max Temperature 5 °F 27 °F 44 °F (1997)
Min Temperature -11 °F 8 °F -18 °F (2000)
Degree Days  
Heating Degree Days 68    
Moisture  
Dew Point -12 °F    
Average Humidity 59    
Maximum Humidity 78    
Minimum Humidity 47    
Precipitation  
Precipitation 0.00 in - - ()
Sea Level Pressure  
Sea Level Pressure 30.32 in    
Wind  
Wind Speed 4 mph (NW)    
Max Wind Speed 10 mph    
Max Gust Speed 17 mph    
Visibility 10 miles    
Events Snow    
Averages and records for this station are not official NWS values.
T = Trace of Precipitation, MM = Missing Value Source: NWS Daily Summary

Daily Weather History Graph

Daily Weather History Graph

Search for Another Location

Airport or City:

Astronomy

Jan. 21, 2014 Rise Set
Actual Time 7:34 AM CST 5:02 PM CST
Civil Twilight 7:03 AM CST 5:33 PM CST
Nautical Twilight 6:27 AM CST 6:09 PM CST
Astronomical Twilight 5:53 AM CST 6:43 PM CST
Moon 10:49 PM CST (1/21) 9:52 AM CST (1/21)
Length of Visible Light 10h 30m
Length of Day
9h 27m
Waning Gibbous, 74% of the Moon is Illuminated
Jan 21
Waning Gibbous
Jan 23
Last Quarter
Jan 30
New
Feb 6
First Quarter
Feb 14
Full

Hourly Weather History & Observations

Time (CST) Temp. Windchill Dew Point Humidity Pressure Visibility Wind Dir Wind Speed Gust Speed Precip Events Conditions
12:18 AM 3.2 °F -7.8 °F -11.2 °F 51% 30.38 in 10.0 mi NNW 5.8 mph - N/A   Clear
12:37 AM 1.4 °F -9.9 °F -13.0 °F 51% 30.39 in 10.0 mi NNW 5.8 mph - N/A   Clear
12:58 AM 1.4 °F -9.9 °F -13.0 °F 51% 30.39 in 10.0 mi North 5.8 mph - N/A   Clear
1:18 AM 1.4 °F -14.5 °F -14.8 °F 47% 30.40 in 10.0 mi NNW 10.4 mph 17.3 mph N/A   Clear
1:37 AM -0.4 °F -13.4 °F -14.8 °F 51% 30.40 in 10.0 mi NNW 6.9 mph - N/A   Clear
1:58 AM -0.4 °F -12.0 °F -14.8 °F 51% 30.42 in 10.0 mi NNW 5.8 mph - N/A   Clear
2:18 AM -2.2 °F -12.5 °F -14.8 °F 55% 30.42 in 10.0 mi NW 4.6 mph - N/A   Clear
2:37 AM -2.2 °F -16.8 °F -14.8 °F 55% 30.43 in 10.0 mi NW 8.1 mph - N/A   Clear
2:58 AM -2.2 °F -14.2 °F -14.8 °F 55% 30.43 in 10.0 mi NW 5.8 mph - N/A   Clear
3:17 AM -4.0 °F -17.8 °F -14.8 °F 60% 30.44 in 10.0 mi NNW 6.9 mph - N/A   Clear
3:38 AM -4.0 °F -14.6 °F -14.8 °F 60% 30.44 in 10.0 mi NW 4.6 mph - N/A   Clear
3:57 AM -4.0 °F -17.8 °F -14.8 °F 60% 30.45 in 10.0 mi NW 6.9 mph - N/A   Clear
4:17 AM -5.8 °F -21.2 °F -16.6 °F 60% 30.46 in 10.0 mi NNW 8.1 mph - N/A   Clear
4:37 AM -5.8 °F -19.9 °F -16.6 °F 60% 30.45 in 10.0 mi NNW 6.9 mph - N/A   Clear
4:57 AM -5.8 °F -19.9 °F -16.6 °F 60% 30.45 in 10.0 mi NNW 6.9 mph - N/A   Clear
5:18 AM -5.8 °F -14.5 °F -14.8 °F 65% 30.45 in 10.0 mi NW 3.5 mph - N/A   Clear
5:37 AM -7.6 °F -18.8 °F -18.4 °F 59% 30.44 in 10.0 mi NNW 4.6 mph - N/A   Clear
5:57 AM -5.8 °F -14.5 °F -14.8 °F 65% 30.45 in 10.0 mi NW 3.5 mph - N/A   Clear
6:18 AM -7.6 °F - -16.6 °F 65% 30.45 in 10.0 mi Calm Calm - N/A   Clear
6:37 AM -7.6 °F - -16.6 °F 65% 30.44 in 10.0 mi Calm Calm - N/A   Clear
6:57 AM -9.4 °F - -18.4 °F 65% 30.44 in 10.0 mi Calm Calm - N/A   Clear
7:17 AM -9.4 °F - -16.6 °F 71% 30.44 in 10.0 mi Calm Calm - N/A   Clear
7:37 AM -9.4 °F -18.6 °F -18.4 °F 65% 30.43 in 10.0 mi NW 3.5 mph - N/A   Clear
7:58 AM -11.2 °F - -18.4 °F 70% 30.43 in 10.0 mi Calm Calm - N/A   Clear
8:17 AM -9.4 °F - -18.4 °F 65% 30.42 in 10.0 mi Calm Calm - N/A   Clear
8:37 AM -9.4 °F - -16.6 °F 71% 30.43 in 10.0 mi Calm Calm - N/A   Clear
8:58 AM -7.6 °F - -16.6 °F 65% 30.43 in 10.0 mi Calm Calm - N/A   Clear
9:17 AM -7.6 °F -20.6 °F -16.6 °F 65% 30.43 in 10.0 mi NW 5.8 mph - N/A   Clear
9:37 AM -7.6 °F -16.5 °F -16.6 °F 65% 30.42 in 10.0 mi NW 3.5 mph - N/A   Clear
9:58 AM -5.8 °F -16.7 °F -16.6 °F 60% 30.42 in 10.0 mi NW 4.6 mph - N/A   Clear
10:17 AM -5.8 °F -16.7 °F -16.6 °F 60% 30.42 in 10.0 mi NNW 4.6 mph - N/A   Clear
10:38 AM -2.2 °F -12.5 °F -14.8 °F 55% 30.42 in 10.0 mi NNW 4.6 mph - N/A   Clear
10:58 AM -0.4 °F -8.3 °F -14.8 °F 51% 30.41 in 10.0 mi NNW 3.5 mph - N/A   Clear
11:17 AM -0.4 °F -12.0 °F -14.8 °F 51% 30.41 in 10.0 mi NW 5.8 mph - N/A   Clear
11:38 AM -0.4 °F -14.7 °F -13.0 °F 55% 30.40 in 10.0 mi NW 8.1 mph - N/A   Clear
11:58 AM -0.4 °F -13.4 °F -13.0 °F 55% 30.39 in 10.0 mi NW 6.9 mph - N/A   Clear
12:17 PM -0.4 °F -13.4 °F -13.0 °F 55% 30.38 in 10.0 mi NW 6.9 mph - N/A   Clear
12:38 PM 1.4 °F -8.3 °F -13.0 °F 51% 30.36 in 10.0 mi NW 4.6 mph - N/A   Clear
12:58 PM 3.2 °F - -13.0 °F 47% 30.34 in 10.0 mi Calm Calm - N/A   Clear
1:17 PM 1.4 °F - -13.0 °F 51% 30.32 in 10.0 mi Calm Calm - N/A   Clear
1:38 PM 3.2 °F - -13.0 °F 47% 30.30 in 10.0 mi Calm Calm - N/A   Clear
1:58 PM 3.2 °F - -13.0 °F 47% 30.29 in 10.0 mi Calm Calm - N/A   Clear
2:17 PM 3.2 °F - -11.2 °F 51% 30.28 in 10.0 mi Calm Calm - N/A   Clear
2:38 PM 5.0 °F - -11.2 °F 47% 30.27 in 10.0 mi Calm Calm - N/A   Clear
2:58 PM 3.2 °F -4.2 °F -11.2 °F 51% 30.27 in 10.0 mi West 3.5 mph - N/A   Clear
3:17 PM 3.2 °F -4.2 °F -11.2 °F 51% 30.27 in 10.0 mi WSW 3.5 mph - N/A   Clear
3:38 PM 3.2 °F - -11.2 °F 51% 30.26 in 10.0 mi Calm Calm - N/A   Clear
3:57 PM 3.2 °F - -11.2 °F 51% 30.26 in 10.0 mi Calm Calm - N/A   Clear
4:17 PM 3.2 °F - -11.2 °F 51% 30.25 in 10.0 mi Calm Calm - N/A   Clear
4:38 PM 3.2 °F - -11.2 °F 51% 30.24 in 10.0 mi Calm Calm - N/A   Clear
4:57 PM 3.2 °F - -11.2 °F 51% 30.22 in 10.0 mi Calm Calm - N/A   Clear
5:17 PM 3.2 °F - -9.4 °F 56% 30.21 in 10.0 mi Calm Calm - N/A   Clear
5:38 PM 3.2 °F - -9.4 °F 56% 30.20 in 10.0 mi Calm Calm - N/A   Clear
5:57 PM 3.2 °F - -9.4 °F 56% 30.20 in 10.0 mi Calm Calm - N/A   Scattered Clouds
6:17 PM 3.2 °F - -9.4 °F 56% 30.20 in 10.0 mi Calm Calm - N/A   Clear
6:38 PM 1.4 °F - -9.4 °F 61% 30.20 in 10.0 mi Calm Calm - N/A   Clear
6:57 PM 1.4 °F - -9.4 °F 61% 30.20 in 10.0 mi Calm Calm - N/A   Scattered Clouds
7:17 PM 3.2 °F - -9.4 °F 56% 30.20 in 10.0 mi Calm Calm - N/A   Mostly Cloudy
7:38 PM 1.4 °F - -7.6 °F 66% 30.21 in 10.0 mi Calm Calm - N/A   Overcast
7:58 PM 3.2 °F - -7.6 °F 61% 30.19 in 10.0 mi Calm Calm - N/A   Overcast
8:17 PM 3.2 °F -7.8 °F -7.6 °F 61% 30.18 in 10.0 mi SSE 5.8 mph - N/A   Overcast
8:38 PM 3.2 °F -9.1 °F -7.6 °F 61% 30.17 in 10.0 mi SSE 6.9 mph - N/A   Overcast
8:57 PM 3.2 °F -4.2 °F -7.6 °F 61% 30.16 in 10.0 mi SSE 3.5 mph - N/A   Overcast
9:18 PM 3.2 °F -4.2 °F -7.6 °F 61% 30.15 in 10.0 mi South 3.5 mph - N/A   Overcast
9:37 PM 3.2 °F -7.8 °F -5.8 °F 66% 30.13 in 5.0 mi South 5.8 mph - N/A Snow Light Snow
9:57 PM 3.2 °F -6.2 °F -4.0 °F 72% 30.12 in 5.0 mi SSE 4.6 mph - N/A Snow Light Snow
10:18 PM 3.2 °F -9.1 °F -4.0 °F 72% 30.11 in 10.0 mi SSE 6.9 mph - N/A   Overcast
10:37 PM 5.0 °F -4.1 °F -4.0 °F 66% 30.09 in 5.0 mi SSE 4.6 mph - N/A Snow Light Snow
10:57 PM 5.0 °F -5.6 °F -2.2 °F 72% 30.08 in 4.0 mi SE 5.8 mph - N/A Snow Light Snow
11:18 PM 5.0 °F -2.1 °F -2.2 °F 72% 30.08 in 7.0 mi SSE 3.5 mph - N/A Snow Light Snow
11:37 PM 5.0 °F -2.1 °F -0.4 °F 78% 30.07 in 10.0 mi SSE 3.5 mph - N/A   Overcast
11:57 PM 5.0 °F - -2.2 °F 72% 30.07 in 10.0 mi Calm Calm - N/A   Mostly Cloudy